Latest Coastal Weather Observations for Middle Percy Island

IDQ60701

Issued at 6:31 pm EST Saturday 30 May 2015 (issued every 10 minutes, with the page automatically refreshed every 10 minutes)

About coastal observations | Map of coastal stations | Coastal observations for QLD | Marine services | Other Formats
Station Details ID: 200001 Name: MIDDLE PERCY ISLAND Lat: -21.66 Lon: 150.27 Height: 208.7 m
Data from the previous 72 hours. | See also: Recent months at Middle Percy Island
Date/Time
EST
Temp

°C
Wind Pressure Rain
since 9am
mm
Weather Cloud Vis
km
Sea
Height
m
Swell
Dir
 
Speed
knots
Gust
knots
hPa Trend Height
m
Period
s
Dir
30/06:30pm 21.2 - 5 6 1019.7 - - - - - - - - -
30/06:00pm 21.5 - - - 1019.0 - - - - - - - - -
30/05:30pm 21.4 - - - 1019.4 - - - - - - - - -
30/05:00pm 21.7 - - - 1018.7 - - - - - - - - -
30/04:30pm 22.1 - - - 1019.4 - - - - - - - - -
30/04:00pm 22.7 - - - 1018.5 - - - - - - - - -
30/03:30pm 22.6 - - - 1019.2 - - - - - - - - -
30/03:00pm 22.9 - - - 1018.3 - 0.2 - - - - - - -
30/02:30pm 23.7 - - - 1019.3 - - - - - - - - -
30/02:00pm 22.6 - - - 1018.7 - - - - - - - - -
30/01:30pm 23.2 - - - 1019.8 - - - - - - - - -
30/01:00pm 23.7 - - - 1019.4 - - - - - - - - -
30/12:30pm 25.0 - - - 1020.7 - - - - - - - - -
30/12:00pm 24.5 - - - 1020.6 - - - - - - - - -
30/11:30am 25.3 - - - 1021.9 - - - - - - - - -
30/11:00am 24.5 - - - 1021.4 - - - - - - - - -
30/10:30am 24.6 - - - 1022.6 - - - - - - - - -
30/10:00am 24.6 - 4 9 1022.2 - - - - - - - - -
30/09:30am 23.9 - - - 1023.1 - - - - - - - - -
30/09:00am 23.7 - - - 1022.2 - 4.0 - - - - - - -
30/08:30am 23.0 - - - 1022.5 - - - - - - - - -
30/08:00am 22.9 - - - 1021.7 - - - - - - - - -
30/07:30am 22.5 - 6 7 1022.3 - - - - - - - - -
30/07:00am 22.1 - - - 1021.4 - - - - - - - - -
30/06:30am 21.7 - - - 1022.1 - - - - - - - - -
30/06:00am 21.4 - - - 1020.7 - - - - - - - - -
30/05:30am 21.4 - - - 1021.3 - - - - - - - - -
30/05:00am 21.4 - - - 1020.3 - - - - - - - - -
30/04:30am 21.3 - - - 1020.9 - - - - - - - - -
30/04:00am 21.3 - - - 1020.2 - - - - - - - - -
30/03:30am 21.4 - - - 1020.9 - - - - - - - - -
30/03:00am 21.5 - - - 1020.3 - 4.0 - - - - - - -
30/02:30am 21.4 - - - 1021.1 - - - - - - - - -
30/02:00am 21.3 - - - 1020.6 - - - - - - - - -
30/01:30am 21.0 - - - 1021.5 - - - - - - - - -
30/01:00am 21.1 - - - 1021.1 - - - - - - - - -
30/12:30am 21.2 - - - 1022.1 - - - - - - - - -
30/12:00am 20.7 - 6 8 1021.6 - - - - - - - - -
 
Date/Time
EST
Temp

°C
Wind Pressure Rain
since 9am
mm
Weather Cloud Vis
km
Sea
Height
m
Swell
Dir
 
Speed
knots
Gust
knots
hPa Trend Height
m
Period
s
Dir
29/11:30pm 21.0 - - - 1022.5 - - - - - - - - -
29/11:00pm 20.9 - - - 1021.9 - - - - - - - - -
29/10:30pm 20.9 - - - 1023.0 - - - - - - - - -
29/10:00pm 20.6 - - - 1022.3 - - - - - - - - -
29/09:30pm 19.9 - - - 1023.2 - - - - - - - - -
29/09:00pm 21.2 - - - 1022.3 - 0.0 - - - - - - -
29/08:30pm 21.0 - - - 1023.0 - - - - - - - - -
29/08:00pm 21.0 - - - 1021.9 - - - - - - - - -
29/07:30pm 21.0 - - - 1022.7 - - - - - - - - -
29/07:00pm 21.1 - - - 1021.8 - - - - - - - - -
29/06:30pm 21.0 - - - 1022.3 - - - - - - - - -
29/06:00pm 21.1 - - - 1021.1 - - - - - - - - -
29/05:30pm 21.4 - - - 1021.5 - - - - - - - - -
29/05:00pm 21.5 - - - 1020.5 - - - - - - - - -
29/04:30pm 21.9 - - - 1021.1 - - - - - - - - -
29/04:00pm 22.4 - - - 1020.0 - - - - - - - - -
29/03:30pm 22.8 - - - 1020.6 - - - - - - - - -
29/03:00pm 22.6 - - - 1019.8 - 0.2 - - - - - - -
29/02:30pm 23.4 - - - 1020.6 - - - - - - - - -
29/02:00pm 23.5 - - - 1019.9 - - - - - - - - -
29/01:30pm 23.6 - - - 1021.0 - - - - - - - - -
29/01:00pm 23.7 - - - 1020.6 - - - - - - - - -
29/12:30pm 23.4 - - - 1021.8 - - - - - - - - -
29/12:00pm 23.4 - - - 1021.4 - - - - - - - - -
29/11:30am 23.1 - - - 1022.5 - - - - - - - - -
29/11:00am 23.8 - - - 1021.9 - - - - - - - - -
29/10:30am 23.3 - - - 1023.2 - - - - - - - - -
29/10:00am 21.4 - - - 1022.7 - - - - - - - - -
29/09:30am 22.6 - - - 1023.6 - - - - - - - - -
29/09:00am 23.1 - - - 1022.7 - 0.2 - - - - - - -
29/08:30am 22.6 - - - 1023.3 - - - - - - - - -
29/08:00am 21.9 - - - 1022.4 - - - - - - - - -
29/07:30am 21.8 - - - 1022.9 - - - - - - - - -
29/07:00am 21.4 - - - 1021.8 - - - - - - - - -
29/06:30am 21.2 - - - 1022.3 - - - - - - - - -
29/06:00am 20.9 - - - 1021.2 - - - - - - - - -
29/05:30am 20.9 - - - 1021.9 - - - - - - - - -
29/05:00am 21.0 - - - 1020.9 - - - - - - - - -
29/04:30am 20.8 - - - 1021.7 - - - - - - - - -
29/04:00am 20.8 - - - 1020.9 - - - - - - - - -
29/03:30am 21.0 - - - 1021.7 - - - - - - - - -
29/03:00am 20.9 - - - 1020.9 - 0.0 - - - - - - -
29/02:30am 20.9 - - - 1021.8 - - - - - - - - -
29/02:00am 20.9 - - - 1021.0 - - - - - - - - -
29/01:30am 21.1 - - - 1022.1 - - - - - - - - -
29/01:00am 21.1 - - - 1021.5 - - - - - - - - -
29/12:30am 20.9 - - - 1022.6 - - - - - - - - -
29/12:00am 21.2 - - - 1021.9 - - - - - - - - -
 
Date/Time
EST
Temp

°C
Wind Pressure Rain
since 9am
mm
Weather Cloud Vis
km
Sea
Height
m
Swell
Dir
 
Speed
knots
Gust
knots
hPa Trend Height
m
Period
s
Dir
28/11:30pm 21.0 - - - 1022.7 - - - - - - - - -
28/11:00pm 21.1 - - - 1022.0 - - - - - - - - -
28/10:30pm 21.1 - - - 1022.9 - - - - - - - - -
28/10:00pm 21.2 - - - 1022.0 - - - - - - - - -
28/09:30pm 21.0 - - - 1022.8 - - - - - - - - -
28/09:00pm 21.0 - - - 1021.9 - 0.0 - - - - - - -
28/08:30pm 20.9 - - - 1022.7 - - - - - - - - -
28/08:00pm 21.0 - - - 1021.6 - - - - - - - - -
28/07:30pm 20.9 - - - 1022.1 - - - - - - - - -
28/07:00pm 20.9 - - - 1021.1 - - - - - - - - -
28/06:30pm 21.0 - - - 1021.6 - - - - - - - - -
28/06:00pm 21.0 - - - 1020.7 - - - - - - - - -
28/05:30pm 21.1 - - - 1021.3 - - - - - - - - -
28/05:00pm 21.3 - - - 1020.3 - - - - - - - - -
28/04:30pm 21.6 - - - 1021.0 - - - - - - - - -
28/04:00pm 21.8 - - - 1020.0 - - - - - - - - -
28/03:30pm 22.7 - - - 1020.6 - - - - - - - - -
28/03:00pm 22.1 - - - 1019.9 - 0.2 - - - - - - -
28/02:30pm 22.8 - - - 1020.5 - - - - - - - - -
28/02:00pm 22.5 - - - 1019.8 - - - - - - - - -
28/01:30pm 21.7 - - - 1020.8 - - - - - - - - -
28/01:00pm 23.0 - - - 1020.1 - - - - - - - - -
28/12:30pm 23.0 - - - 1021.2 - - - - - - - - -
28/12:00pm 22.7 - - - 1020.9 - - - - - - - - -
28/11:30am 23.1 - - - 1022.0 - - - - - - - - -
28/11:00am 23.5 - - - 1021.5 - - - - - - - - -
28/10:30am 23.8 - - - 1022.6 - - - - - - - - -
28/10:00am 23.1 - - - 1022.0 - - - - - - - - -
28/09:30am 22.9 - - - 1022.8 - - - - - - - - -
28/09:00am 22.8 - - - 1022.0 - 0.2 - - - - - - -
28/08:30am 22.5 - - - 1022.6 - - - - - - - - -
28/08:00am 22.2 - - - 1021.5 - - - - - - - - -
28/07:30am 21.8 - - - 1021.9 - - - - - - - - -
28/07:00am 21.3 - - - 1021.0 - - - - - - - - -
28/06:30am 20.9 - - - 1021.5 - - - - - - - - -
28/06:00am 20.8 - - - 1020.4 - - - - - - - - -
28/05:30am 20.9 - - - 1020.9 - - - - - - - - -
28/05:00am 21.1 - - - 1019.6 - - - - - - - - -
28/04:30am 20.9 - - - 1020.2 - - - - - - - - -
28/04:00am 20.9 - - - 1019.5 - - - - - - - - -
28/03:30am 20.8 - - - 1020.6 - - - - - - - - -
28/03:00am 20.8 - - - 1019.9 - 0.2 - - - - - - -
28/02:30am 20.8 - - - 1020.7 - - - - - - - - -
28/02:00am 20.7 - - - 1020.1 - - - - - - - - -
28/01:30am 20.6 - - - 1021.0 - - - - - - - - -
28/01:00am 20.7 - - - 1020.1 - - - - - - - - -
28/12:30am 20.6 - - - 1021.1 - - - - - - - - -
28/12:00am 20.5 - - - 1020.3 - - Recent precip. - - - - - -
 
Date/Time
EST
Temp

°C
Wind Pressure Rain
since 9am
mm
Weather Cloud Vis
km
Sea
Height
m
Swell
Dir
 
Speed
knots
Gust
knots
hPa Trend Height
m
Period
s
Dir
27/11:30pm 20.3 - - - 1021.4 - - - - - - - - -
27/11:00pm 20.9 - - - 1020.8 - - - - - - - - -
27/10:30pm 20.6 - - - 1021.9 - - - - - - - - -
27/10:00pm 20.5 - - - 1021.0 - - - - - - - - -
27/09:30pm 20.4 - - - 1021.5 - - - - - - - - -
27/09:00pm 20.7 - - - 1020.8 - 0.0 - - - - - - -
27/08:30pm 20.5 - - - 1021.8 - - - - - - - - -
27/08:00pm 20.5 - - - 1020.9 - - - - - - - - -
27/07:30pm 20.6 - - - 1021.3 - - - - - - - - -
27/07:00pm 20.5 - - - 1020.6 - - - - - - - - -

Other Formats:

Comma delimited format used in spreadsheet applications
http://www.bom.gov.au/fwo/IDQ60701/IDQ60701.94372.axf

JavaScript Object Notation format (JSON) in row-major order
http://www.bom.gov.au/fwo/IDQ60701/IDQ60701.94372.json